sat.trackr.live / text

‹ back to catalog

STARLINK-1183

NORAD 45088 · 2020-006AW

PAYLOAD ACTIVE UNKNOWN

§ Identity

Operator
Country
US
Launch date
2020-01-29
Launch site
AFETR
Launch vehicle
Mass (kg)
RCS (m²)

Purposes: comms

External: N2YO · Heavens-Above · Gunter

§ Orbital elements

Epoch: 2026-09-20T03:33:39.921408Z

Period
93.30 min
Inclination
53.1535°
Eccentricity
0.0000606
Mean motion
15.43399465 rev/d
Perigee alt
435.7 km
Apogee alt
436.5 km
Semi-major
6,814.2 km
B*
9.1092e-4
RAAN
51.6951°
Arg perigee
46.2478°
Mean anomaly
313.8578°
Rev number
36,696

§ Raw data

STARLINK-11831 45088U 20006AW  26263.14837872  .00041129  00000+0  91092-3 0  99922 45088  53.1535  51.6951 0000606  46.2478 313.8578 15.43399465366963

JSON: /api/v1/satellites/45088 · /tle

For live sub-satellite position, see the globe view (requires WebGL).

§ Visibility from observer

Set your observer location to see the next 7 days of passes ≥ 10°. The values pass through the URL so the page stays shareable.

No JS? Fill the form by hand. The geolocation button needs JavaScript.